Simultaneous Nadir Overpasses (SNOs) Predictions

Prediction of SNOs between GOES-16 and LANDSAT-8 Satellite Orbit:

Table of predicted SNOs for the next 14.0 days since TLE Epoch: 9/17/2022
Index Date Time (GOES-16) GOES-16 Lat,Lon LANDSAT-8 Lat,Lon Distance(km) Time Diff (sec)
1 09/18/2022 03:06:51 0.05, -75.19 0.46, -73.23 222.95 80
2 09/18/2022 15:25:26 -0.05, -75.21 0.61, -78.39 361.25 80
3 09/20/2022 15:13:15 -0.04, -75.22 -0.02, -75.44 24.09 80
4 09/22/2022 15:03:43 -0.04, -75.24 -0.60, -72.47 314.15 80
5 09/23/2022 03:25:08 0.04, -75.22 -0.46, -77.67 277.55 80
6 09/25/2022 03:10:16 0.03, -75.25 0.13, -74.70 61.43 80
7 09/27/2022 02:58:05 0.03, -75.28 0.79, -71.75 400.87 80
8 09/27/2022 15:22:00 -0.03, -75.30 0.34, -76.90 182.66 80
9 09/29/2022 15:09:49 -0.03, -75.33 -0.33, -73.95 157.17 80
10 09/30/2022 03:31:13 0.03, -75.32 -0.78, -79.14 434.04 80
